Madison, MN

4:38 AM CST on November 15, 2019 (GMT -0600)
Madison-Lac Qui Parle County

Weather History for KDXX - July, 2019

Change the Weather History Date:

Saturday, July 20, 2019

  Actual Average (KAQP) Record (KAQP)
Temperature  
Mean Temperature 70 °F -  
Max Temperature 78 °F 80 °F 93 °F (2011)
Min Temperature 62 °F 60 °F 48 °F (2007)
Cooling Degree Days 5    
Growing Degree Days 20 (Base 50)    
Moisture  
Dew Point 64 °F    
Average Humidity 79    
Maximum Humidity 100    
Minimum Humidity 57    
Precipitation  
Precipitation 0.22 in - - ()
Sea Level Pressure  
Sea Level Pressure 29.91 in    
Wind  
Wind Speed 6 mph (North)    
Max Wind Speed 21 mph    
Max Gust Speed 29 mph    
Visibility 10 miles    
Events Rain , Thunderstorm    
Averages and records for this station are not official NWS values.
T = Trace of Precipitation, MM = Missing Value Source: NWS Daily Summary

Daily Weather History Graph

Daily Weather History Graph

Search for Another Location

Airport or City:

Astronomy

Jul. 20, 2019 Rise Set
Actual Time 5:57 AM CDT 9:04 PM CDT
Civil Twilight 5:21 AM CDT 9:39 PM CDT
Nautical Twilight 4:36 AM CDT 10:25 PM CDT
Astronomical Twilight 3:40 AM CDT 11:20 PM CDT
Moon 11:24 PM CDT (7/20) 9:28 AM CDT (7/20)
Length of Visible Light 16h 18m
Length of Day
15h 07m
Waning Gibbous, 87% of the Moon is Illuminated
Jul 20
Waning Gibbous
Jul 24
Last Quarter
Jul 31
New
Aug 7
First Quarter
Aug 15
Full

Hourly Weather History & Observations

Time (CDT) Temp. Dew Point Humidity Pressure Visibility Wind Dir Wind Speed Gust Speed Precip Events Conditions
12:15 AM 75.2 °F 71.6 °F 89% 29.79 in 7.0 mi Calm Calm - N/A   Clear
12:35 AM 73.4 °F 71.6 °F 94% 29.78 in 10.0 mi NNE 3.5 mph - N/A   Clear
12:36 AM 73.4 °F 71.6 °F 94% 29.78 in 10.0 mi NNE 3.5 mph - N/A   Clear
12:55 AM 73.4 °F 71.6 °F 94% 29.78 in 10.0 mi NE 3.5 mph - N/A   Clear
12:56 AM 73.4 °F 71.6 °F 94% 29.78 in 10.0 mi NE 3.5 mph - N/A   Clear
1:19 AM 73.4 °F 71.6 °F 94% 29.78 in 10.0 mi Calm Calm - N/A   Clear
1:36 AM 71.6 °F 69.8 °F 94% 29.79 in 10.0 mi Calm Calm - N/A   Clear
1:56 AM 73.4 °F 71.6 °F 94% 29.79 in 10.0 mi Calm Calm - N/A   Clear
2:15 AM 71.6 °F 71.6 °F 100% 29.80 in 10.0 mi NNW 3.5 mph - N/A   Clear
2:16 AM 71.6 °F 71.6 °F 100% 29.80 in 10.0 mi NNW 3.5 mph - N/A   Clear
2:35 AM 73.4 °F 71.6 °F 94% 29.80 in 10.0 mi North 3.5 mph - N/A   Mostly Cloudy
2:39 AM 73.4 °F 71.6 °F 94% 29.80 in 10.0 mi North 3.5 mph - N/A   Mostly Cloudy
2:58 AM 73.4 °F 71.6 °F 94% 29.80 in 10.0 mi North 3.5 mph - N/A   Overcast
3:16 AM 73.4 °F 71.6 °F 94% 29.81 in 10.0 mi North 4.6 mph - N/A   Mostly Cloudy
3:35 AM 73.4 °F 71.6 °F 94% 29.82 in 10.0 mi North 6.9 mph - N/A   Scattered Clouds
3:36 AM 73.4 °F 71.6 °F 94% 29.82 in 10.0 mi North 6.9 mph - N/A   Scattered Clouds
3:55 AM 73.4 °F 71.6 °F 94% 29.82 in 10.0 mi Calm Calm - N/A   Scattered Clouds
4:18 AM 71.6 °F 69.8 °F 94% 29.83 in 10.0 mi Calm Calm - N/A   Scattered Clouds
4:36 AM 71.6 °F 69.8 °F 94% 29.85 in 10.0 mi North 3.5 mph - N/A   Clear
4:55 AM 71.6 °F 69.8 °F 94% 29.85 in 10.0 mi North 8.1 mph - N/A Thunderstorm Scattered Clouds
5:15 AM 71.6 °F 69.8 °F 94% 29.82 in 10.0 mi North 11.5 mph 16.1 mph N/A   Clear
5:16 AM 71.6 °F 69.8 °F 94% 29.82 in 10.0 mi North 11.5 mph 16.1 mph N/A   Clear
5:35 AM 69.8 °F 66.2 °F 88% 29.82 in 10.0 mi NE 10.4 mph - N/A   Clear
5:40 AM 69.8 °F 66.2 °F 88% 29.83 in 10.0 mi NE 6.9 mph - N/A   Scattered Clouds
5:58 AM 69.8 °F 66.2 °F 88% 29.84 in 10.0 mi NNE 9.2 mph - N/A Thunderstorm Mostly Cloudy
6:15 AM 69.8 °F 60.8 °F 73% 29.83 in 10.0 mi NE 16.1 mph 19.6 mph N/A Thunderstorm Overcast
6:35 AM 69.8 °F 57.2 °F 64% 29.79 in 10.0 mi NE 17.3 mph 21.9 mph N/A   Mostly Cloudy
6:36 AM 69.8 °F 57.2 °F 64% 29.79 in 10.0 mi NNE 16.1 mph 21.9 mph N/A   Mostly Cloudy
6:55 AM 69.8 °F 55.4 °F 60% 29.89 in 10.0 mi SSE 3.5 mph 20.7 mph N/A Rain , Thunderstorm Thunderstorms and Rain
7:18 AM 66.2 °F 57.2 °F 73% 29.90 in 5.0 mi NE 12.7 mph - 0.17 in Rain , Thunderstorm Light Thunderstorms and Rain
7:37 AM 66.2 °F 57.2 °F 73% 29.92 in 10.0 mi NNW 15.0 mph - 0.17 in Thunderstorm Unknown
8:15 AM 64.4 °F 59.0 °F 83% 30.02 in 10.0 mi West 16.1 mph - N/A Rain , Thunderstorm Heavy Thunderstorms and Rain
8:16 AM 64.4 °F 59.0 °F 83% 30.02 in 10.0 mi West 13.8 mph - N/A Rain , Thunderstorm Heavy Thunderstorms and Rain
8:35 AM 64.4 °F 60.8 °F 88% 30.02 in 10.0 mi SSW 8.1 mph - N/A Rain , Thunderstorm Heavy Thunderstorms and Rain
8:57 AM 62.6 °F 60.8 °F 94% 29.98 in 10.0 mi South 4.6 mph - N/A Rain Rain
9:16 AM 64.4 °F 57.2 °F 77% 29.94 in 10.0 mi East 10.4 mph - N/A Rain Rain
9:35 AM 62.6 °F 57.2 °F 82% 29.87 in 10.0 mi ESE 17.3 mph - N/A Rain Rain
9:36 AM 62.6 °F 57.2 °F 82% 29.86 in 10.0 mi East 18.4 mph - 0.04 in Rain Light Rain
9:55 AM 62.6 °F 55.4 °F 77% 29.80 in 10.0 mi East 19.6 mph 28.8 mph N/A Rain Light Rain
10:19 AM 62.6 °F 55.4 °F 77% 29.77 in 10.0 mi ESE 20.7 mph 24.2 mph 0.01 in Rain Light Rain
10:36 AM 62.6 °F 55.4 °F 77% 29.74 in 10.0 mi SE 17.3 mph 28.8 mph 0.01 in   Scattered Clouds
10:56 AM 62.6 °F 55.4 °F 77% 29.71 in 10.0 mi East 17.3 mph 25.3 mph N/A   Clear
11:35 AM 64.4 °F 57.2 °F 77% 29.91 in 10.0 mi WNW 9.2 mph - N/A   Scattered Clouds
11:39 AM 64.4 °F 57.2 °F 77% 29.91 in 10.0 mi WNW 8.1 mph - N/A   Scattered Clouds
11:58 AM 66.2 °F 57.2 °F 73% 29.92 in 10.0 mi WNW 4.6 mph - N/A   Scattered Clouds
12:15 PM 68.0 °F 59.0 °F 73% 29.93 in 10.0 mi NW 4.6 mph - N/A   Scattered Clouds
12:35 PM 69.8 °F 60.8 °F 73% 29.92 in 10.0 mi NNW 5.8 mph - N/A   Scattered Clouds
12:36 PM 69.8 °F 60.8 °F 73% 29.92 in 10.0 mi NNW 5.8 mph - N/A   Scattered Clouds
12:55 PM 69.8 °F 60.8 °F 73% 29.92 in 10.0 mi WNW 4.6 mph - N/A   Clear
1:18 PM 71.6 °F 60.8 °F 69% 29.93 in 10.0 mi Calm Calm - N/A   Clear
1:37 PM 71.6 °F 60.8 °F 69% 29.93 in 10.0 mi Calm Calm - N/A   Clear
1:55 PM 73.4 °F 62.6 °F 69% 29.94 in 10.0 mi WNW 6.9 mph - N/A   Clear
1:56 PM 73.4 °F 62.6 °F 69% 29.94 in 10.0 mi WNW 5.8 mph - N/A   Clear
2:15 PM 73.4 °F 64.4 °F 73% 29.94 in 10.0 mi West 8.1 mph - N/A   Clear
2:16 PM 73.4 °F 62.6 °F 69% 29.94 in 10.0 mi West 6.9 mph - N/A   Clear
2:35 PM 75.2 °F 64.4 °F 69% 29.93 in 10.0 mi WNW 5.8 mph - N/A   Clear
2:57 PM 75.2 °F 64.4 °F 69% 29.95 in 10.0 mi NW 8.1 mph - N/A   Clear
3:15 PM 75.2 °F 64.4 °F 69% 29.95 in 10.0 mi WNW 5.8 mph - N/A   Clear
3:35 PM 77.0 °F 66.2 °F 69% 29.96 in 10.0 mi NW 6.9 mph - N/A   Clear
3:55 PM 78.8 °F 66.2 °F 65% 29.96 in 10.0 mi NNW 8.1 mph - N/A   Clear
3:56 PM 78.8 °F 66.2 °F 65% 29.96 in 10.0 mi NW 6.9 mph - N/A   Clear
4:18 PM 78.8 °F 66.2 °F 65% 29.96 in 10.0 mi NNW 8.1 mph - N/A   Clear
4:37 PM 78.8 °F 66.2 °F 65% 29.96 in 10.0 mi NNW 5.8 mph - N/A   Clear
4:56 PM 78.8 °F 66.2 °F 65% 29.96 in 10.0 mi North 8.1 mph - N/A   Clear
5:15 PM 78.8 °F 66.2 °F 65% 29.96 in 10.0 mi North 8.1 mph - N/A   Clear
5:16 PM 78.8 °F 66.2 °F 65% 29.96 in 10.0 mi North 8.1 mph - N/A   Clear
5:35 PM 78.8 °F 66.2 °F 65% 29.96 in 10.0 mi North 11.5 mph - N/A   Scattered Clouds
5:57 PM 78.8 °F 66.2 °F 65% 29.96 in 10.0 mi North 11.5 mph - N/A   Scattered Clouds
6:16 PM 78.8 °F 64.4 °F 61% 29.97 in 10.0 mi North 9.2 mph - N/A   Clear
6:35 PM 78.8 °F 62.6 °F 57% 29.96 in 10.0 mi North 11.5 mph - N/A   Clear
6:36 PM 78.8 °F 62.6 °F 57% 29.96 in 10.0 mi North 11.5 mph - N/A   Clear
6:55 PM 78.8 °F 62.6 °F 57% 29.96 in 10.0 mi North 9.2 mph - N/A   Clear
6:56 PM 78.8 °F 62.6 °F 57% 29.96 in 10.0 mi NNE 9.2 mph - N/A   Clear
7:18 PM 77.0 °F 62.6 °F 61% 29.96 in 10.0 mi North 8.1 mph - N/A   Clear
7:36 PM 75.2 °F 62.6 °F 65% 29.96 in 10.0 mi North 9.2 mph - N/A   Clear
7:55 PM 75.2 °F 62.6 °F 65% 29.97 in 10.0 mi North 5.8 mph - N/A   Clear
8:15 PM 73.4 °F 64.4 °F 73% 29.98 in 10.0 mi North 4.6 mph - N/A   Clear
8:16 PM 73.4 °F 64.4 °F 73% 29.98 in 10.0 mi North 4.6 mph - N/A   Clear
8:39 PM 71.6 °F 64.4 °F 78% 29.99 in 10.0 mi North 3.5 mph - N/A   Clear
8:57 PM 71.6 °F 62.6 °F 73% 29.99 in 10.0 mi NNE 3.5 mph - N/A   Clear
9:16 PM 69.8 °F 64.4 °F 83% 30.00 in 10.0 mi Calm Calm - N/A   Clear
9:35 PM 69.8 °F 64.4 °F 83% 30.01 in 10.0 mi Calm Calm - N/A   Clear
9:36 PM 69.8 °F 64.4 °F 83% 30.01 in 10.0 mi Calm Calm - N/A   Clear
9:55 PM 68.0 °F 66.2 °F 94% 30.02 in 10.0 mi South 3.5 mph - N/A   Clear
9:59 PM 68.0 °F 64.4 °F 88% 30.01 in 10.0 mi South 3.5 mph - N/A   Clear
10:17 PM 66.2 °F 64.4 °F 94% 30.02 in 10.0 mi Calm Calm - N/A   Clear
10:36 PM 66.2 °F 64.4 °F 94% 30.02 in 10.0 mi Calm Calm - N/A   Clear
10:55 PM 66.2 °F 64.4 °F 94% 30.02 in 10.0 mi Calm Calm - N/A   Clear
10:56 PM 66.2 °F 64.4 °F 94% 30.02 in 10.0 mi Calm Calm - N/A   Clear
11:15 PM 66.2 °F 64.4 °F 94% 30.02 in 10.0 mi Calm Calm - N/A   Clear
11:37 PM 66.2 °F 64.4 °F 94% 30.02 in 10.0 mi Calm Calm - N/A   Clear
11:55 PM 64.4 °F 62.6 °F 94% 30.02 in 10.0 mi Calm Calm - N/A   Clear